This is the latest recevied weather packets stored in our database for station/object G4KVI. If no packets are shown the sender has not sent any weather packets the latest 1 day(s).
| Time | Temp. | Humidity | Pressure | Rain* | Wind** | Luminosity | Snow |
|---|---|---|---|---|---|---|---|
| 1778054403 | 8.89° C | 68% | 1016.2 hPa | 0 mm | 1.79 m/s, 80° | 170 W/m² | - |
| 1778054103 | 8.89° C | 67% | 1016.4 hPa | 0 mm | 1.79 m/s, 81° | 170 W/m² | - |
| 1778053803 | 8.89° C | 67% | 1016.1 hPa | 0 mm | 1.79 m/s, 70° | 174 W/m² | - |
| 1778053503 | 8.89° C | 67% | 1016.2 hPa | 0 mm | 1.79 m/s, 74° | 176 W/m² | - |
| 1778053203 | 8.89° C | 68% | 1016.2 hPa | 0 mm | 2.24 m/s, 78° | 187 W/m² | - |
| 1778052903 | 8.89° C | 68% | 1016.3 hPa | 0 mm | 2.24 m/s, 70° | 197 W/m² | - |
| 1778052603 | 8.89° C | 68% | 1016.2 hPa | 0 mm | 1.79 m/s, 58° | 194 W/m² | - |
| 1778052303 | 8.89° C | 68% | 1016.2 hPa | 0 mm | 1.34 m/s, 63° | 200 W/m² | - |
| 1778051715 | 8.33° C | 69% | 1016.2 hPa | 0 mm | 1.79 m/s, 72° | 168 W/m² | - |
| 1778051403 | 8.33° C | 71% | 1016.1 hPa | 0 mm | 1.79 m/s, 69° | 142 W/m² | - |
| 1778051103 | 8.33° C | 71% | 1016.1 hPa | 0 mm | 1.34 m/s, 66° | 134 W/m² | - |
| 1778050803 | 8.33° C | 72% | 1016.1 hPa | 0 mm | 1.34 m/s, 75° | 120 W/m² | - |
| 1778050503 | 8.33° C | 72% | 1016 hPa | 0 mm | 1.34 m/s, 81° | 113 W/m² | - |
| 1778050203 | 8.33° C | 73% | 1015.9 hPa | 0 mm | 1.34 m/s, 78° | 110 W/m² | - |
| 1778049903 | 8.33° C | 74% | 1015.9 hPa | 0 mm | 1.34 m/s, 78° | 102 W/m² | - |
| 1778049603 | 8.33° C | 74% | 1015.9 hPa | 0 mm | 0.89 m/s, 80° | 92 W/m² | - |
| 1778049303 | 8.33° C | 74% | 1016 hPa | 0 mm | 0.89 m/s, 68° | 81 W/m² | - |
| 1778049003 | 8.33° C | 74% | 1015.8 hPa | 0 mm | 0.89 m/s, 65° | 73 W/m² | - |
| 1778048703 | 8.33° C | 75% | 1015.9 hPa | 0 mm | 0.89 m/s, 68° | 64 W/m² | - |
| 1778048403 | 8.33° C | 75% | 1015.9 hPa | 0 mm | 1.34 m/s, 60° | 54 W/m² | - |
| 1778048103 | 8.33° C | 75% | 1015.8 hPa | 0 mm | 0.89 m/s, 61° | 46 W/m² | - |
| 1778047803 | 8.33° C | 76% | 1015.8 hPa | 0 mm | 0.89 m/s, 68° | 44 W/m² | - |
| 1778047503 | 8.33° C | 76% | 1015.8 hPa | 0 mm | 0.89 m/s, 61° | 44 W/m² | - |
| 1778047203 | 8.33° C | 76% | 1015.8 hPa | 0 mm | 1.34 m/s, 60° | 43 W/m² | - |
| 1778046903 | 8.33° C | 77% | 1015.5 hPa | 0 mm | 1.34 m/s, 67° | 44 W/m² | - |
* Rain latest hour (hover to see other rain measurements)
** Current wind speed in m/s (hover to see current wind gust speed)